Flag for U.S.A. Weather past 2 weeks in Menominee, Michigan, U.S.A.

Now
54 °F

Overcast.


Feels Like: 52 °F
Forecast: 50 / 67 °F
Wind: 7 mph from North

Location: Menominee Weather Reporting Station

Current Time: Jul 1, 2015 at 10:22:04 AM

Latest Report: Jul 1, 2015 at 9:55 AM


Visibility: 10 mi

Pressure: 29.98 "Hg

Humidity: 72%

Dew point: 45 °F

Location of MenomineeLocation

Historic Weather in Menominee — Graph

°F

Menominee temperature yesterday

Maximum temperature yesterday: 66 °F (at 1:35 PM)
Minimum temperature yesterday: 54 °F (at 9:15 PM)
Average temperature yesterday: 61 °F

Past Weeks' High & Low Weather Summary

 TemperatureHumidityPressure
High81 °F (Jun 24, 12:15 PM)94% (Jun 21, 1:15 AM)30.19 "Hg (Jun 21, 1:15 AM)
Low41 °F (Jun 19, 3:55 AM)28% (Jun 23, 4:15 PM)29.57 "Hg (Jun 22, 2:35 PM)
Average63 °F68%29.95 "Hg
* Reported Jun 16 9:15 AM — Jul 1 9:15 AM, Menominee, Weather by CustomWeather, © 2015

Note: Actual official high and low records may vary slightly from our data, if they occured in-between our weather recording intervals... More about our weather records

Advertising

Menominee weather history for previous 24 hours

 ConditionsComfort  
Time TempWeatherWind HumidityBarometerVisibility
9:15 AM
Wed, Jul 1
52 °FOvercast.8 mph72%29.98 "Hg10 mi
8:55 AM52 °FOvercast.7 mph72%29.98 "Hg10 mi
8:35 AM50 °FOvercast.8 mph76%29.98 "Hg10 mi
8:15 AM48 °FOvercast.8 mph82%29.98 "Hg10 mi
7:55 AM48 °FOvercast.7 mph82%29.98 "Hg10 mi
7:35 AM48 °FOvercast.7 mph82%29.97 "Hg10 mi
7:15 AM48 °FOvercast.8 mph82%29.97 "Hg10 mi
6:55 AM48 °FOvercast.7 mph82%29.97 "Hg10 mi
6:35 AM48 °FOvercast.6 mph82%29.96 "Hg10 mi
6:15 AM48 °FOvercast.7 mph82%29.96 "Hg10 mi
5:55 AM48 °FOvercast.3 mph82%29.96 "Hg10 mi
5:35 AM48 °FOvercast.5 mph82%29.95 "Hg10 mi
5:15 AM48 °FOvercast.6 mph82%29.95 "Hg10 mi
4:55 AM48 °FOvercast.3 mph82%29.94 "Hg10 mi
4:35 AM48 °FOvercast.7 mph82%29.93 "Hg10 mi
4:15 AM48 °FOvercast.7 mph82%29.93 "Hg10 mi
3:55 AM48 °FOvercast.6 mph82%29.93 "Hg10 mi
3:35 AM48 °FOvercast.7 mph82%29.93 "Hg10 mi
3:15 AM48 °FMostly cloudy.5 mph82%29.93 "Hg10 mi
2:55 AM48 °FMostly cloudy.7 mph82%29.93 "Hg10 mi
2:35 AM48 °FOvercast.8 mph76%29.92 "Hg10 mi
2:15 AM50 °FOvercast.8 mph76%29.92 "Hg10 mi
1:55 AM52 °FOvercast.9 mph67%29.93 "Hg10 mi
1:35 AM52 °FOvercast.9 mph72%29.93 "Hg10 mi
1:15 AM52 °FOvercast.8 mph72%29.93 "Hg10 mi
12:55 AM52 °FOvercast.9 mph72%29.93 "Hg10 mi
12:35 AM52 °FOvercast.9 mph72%29.93 "Hg10 mi
12:15 AM52 °FOvercast.8 mph72%29.93 "Hg10 mi
11:15 PM
Tue, Jun 30
54 °FOvercast.7 mph67%29.93 "Hg10 mi
10:55 PM54 °FOvercast.7 mph67%29.94 "Hg10 mi
10:35 PM54 °FOvercast.6 mph72%29.94 "Hg10 mi
10:15 PM54 °FOvercast.5 mph72%29.93 "Hg10 mi
9:55 PM54 °FPassing clouds.5 mph72%29.93 "Hg10 mi
9:35 PM54 °FPassing clouds.5 mph72%29.93 "Hg10 mi
9:15 PM54 °FPassing clouds.6 mph72%29.93 "Hg10 mi
8:55 PM55 °FPassing clouds.8 mph67%29.92 "Hg10 mi
8:35 PM55 °FOvercast.8 mph67%29.93 "Hg10 mi
8:15 PM55 °FOvercast.10 mph67%29.93 "Hg10 mi
7:55 PM55 °FOvercast.14 mph67%29.92 "Hg10 mi
7:35 PM57 °FOvercast.10 mph67%29.91 "Hg10 mi
7:15 PM59 °FOvercast.N/A63%29.90 "Hg10 mi
6:55 PM61 °FOvercast.13 mph63%29.89 "Hg10 mi
6:35 PM61 °FOvercast.14 mph63%29.88 "Hg10 mi
6:15 PM61 °FOvercast.15 mph63%29.88 "Hg10 mi
5:55 PM63 °FOvercast.14 mph64%29.88 "Hg10 mi
5:35 PM63 °FOvercast.12 mph68%29.88 "Hg10 mi
5:15 PM63 °FOvercast.13 mph68%29.87 "Hg10 mi
4:55 PM64 °FMostly cloudy.14 mph64%29.86 "Hg10 mi
4:35 PM64 °FMostly cloudy.13 mph64%29.85 "Hg10 mi
4:15 PM64 °FOvercast.14 mph64%29.85 "Hg10 mi
3:55 PM64 °FOvercast.15 mph64%29.85 "Hg10 mi
3:35 PM64 °FOvercast.10 mph64%29.85 "Hg10 mi
3:15 PM64 °FOvercast.10 mph68%29.84 "Hg10 mi
2:55 PM66 °FMostly cloudy.9 mph64%29.84 "Hg10 mi
2:35 PM64 °FOvercast.10 mph68%29.84 "Hg10 mi
2:15 PM64 °FOvercast.14 mph68%29.84 "Hg10 mi
1:55 PM64 °FOvercast.12 mph68%29.84 "Hg10 mi
1:35 PM66 °FOvercast.9 mph64%29.85 "Hg10 mi
1:15 PM64 °FOvercast.10 mph68%29.85 "Hg10 mi
12:55 PM64 °FMostly cloudy.7 mph68%29.85 "Hg10 mi
11:55 AM63 °FMostly cloudy.10 mph68%29.84 "Hg10 mi
11:35 AM61 °FOvercast.10 mph72%29.84 "Hg10 mi
10:55 AM61 °FCloudy.10 mph72%29.84 "Hg10 mi
Weather by CustomWeather, © 2015

See weather overviewHow to use our weather pages